Regional Weather Roundup
Issued by NWS Wakefield, VA

Home | Current Version | Previous Version | Graphics & Text | Print | Product List | Glossary On
Versions: 1 2 3 4 5 6 7 8 9 10 11 12 13 14 15 16 17 18 19 20 21 22 23 24 25 26 27 28 29 30 31 32 33 34 35 36 37 38 39 40 41 42 43 44 45 46 47 48 49 50
000
ASUS41 KAKQ 290310
RWRAKQ

REGIONAL WEATHER ROUNDUP
NATIONAL WEATHER SERVICE WAKEFIELD VA
1100 PM EDT MON JUL 28 2014

Note: "fair" indicates few or no clouds below 12,000 feet with no
significant weather and/or obstructions to visibility. * = Denotes
station may not report precipitation (e.g., rain,snow,etc.),
thunder or fog.

VAZ042-051-052>054-056-290400-
NORTHERN VIRGINIA

CITY           SKY/WX    TMP DP  RH WIND       PRES   REMARKS
WASH NATIONAL  PTCLDY    74  58  57 NW13G23   29.83R
DULLES         PTCLDY    69  57  65 NW12G20   29.84R
FORT BELVOIR   PTCLDY    72  58  63 NW9       29.84R
QUANTICO       CLEAR     71  58  63 N8        29.84S
FREDERICKSBRG* CLEAR     72  59  62 NW5       29.84R
STAFFORD*      CLEAR     68  59  73 NW7       29.89R
WARRENTON      CLEAR     67  64  87 NW6       29.85S
CULPEPER*      PTCLDY   N/A N/A N/A CALM      29.86S
MANASSAS*      NOT AVBL
LEESBURG*      CLEAR     70  61  73 NW9       29.86R
WINCHESTER     CLOUDY    68  55  64 NW10      29.89S
$$

VAZ048-049-060>072-079>083-290400-
CENTRAL AND SOUTH CENTRAL VIRGINIA...AND NORTH CENTRAL NORTH CAROLINA

CITY           SKY/WX    TMP DP  RH WIND       PRES   REMARKS
RICHMOND       PTCLDY    76  55  48 NW9       29.83R
CHESTERFIELD*  CLEAR     70  52  52 NW7       29.86R
HANOVER        CLEAR     71  56  58 NW5       29.86R
TAPPAHANNOCK*  CLEAR     73  54  51 W6        29.83S
CHARLOTTSVILLE CLEAR     67  57  70 N3        29.88R
ORANGE*        CLEAR     70  55  60 W9        29.88S
LOUISA*        PTCLDY    70  57  64 NW6       29.86R
FARMVILLE*     CLEAR     70  55  60 CALM      29.86S
SOUTH HILL*    CLEAR     72  59  64 CALM      29.91S
ROANOKE RAPIDS NOT AVBL
RALEIGH        PTCLDY    74  57  55 VRB3      29.88R
$$

VAZ088>098-290400-
SOUTHEAST VIRGINIA

CITY           SKY/WX    TMP DP  RH WIND       PRES   REMARKS
NORFOLK        CLEAR     78  60  53 W8        29.78F
VIRGINIA BEACH PTCLDY    77  59  53 W8        29.78F
NORFOLK NAVAL  PTCLDY    78  62  57 W7        29.80F
WEST POINT*    CLEAR     76  54  45 NW6       29.83R
NEWPORT NEWS   CLEAR     77  61  57 NW5       29.81S
LANGLEY AFB    CLEAR     75  61  62 NW7       29.79F
FORT EUSTIS    CLEAR     76  60  57 NW8       29.79S
WILLIAMSBURG*  CLEAR     73  63  68 NW8       29.82S
FRANKLIN*      CLEAR     72  61  68 W5        29.81F
WAKEFIELD      CLEAR     68  61  78 CALM      29.83R
$$

VAZ020-022-025-037-045-290400-
WESTERN AND SOUTHWEST VIRGINIA

CITY           SKY/WX    TMP DP  RH WIND       PRES   REMARKS
STAUNTON*      CLEAR     66  53  63 NW5       29.93S
HOT SPRINGS VA FOG       52  52  99 NW14      30.02F VSB 1/2
LYNCHBURG      CLEAR     66  56  70 NW6       29.92R
DANVILLE       CLEAR     72  56  57 NW6       29.90R
MARTINSVILLE   PTCLDY    65  58  76 SW3       29.95S
ROANOKE        PTCLDY    68  54  60 NW12      29.95S
BLACKSBURG     PTCLDY    63  57  82 NW8       30.01S
DUBLIN*        CLEAR     64  56  76 NW3       30.00S
MARION*        CLOUDY   N/A N/A N/A NW9       30.04S
HILLSVILLE*    CLOUDY    62  54  74 NW5       30.02R
RICHLANDS*     CLOUDY    64  58  82 NW3       30.04S
WISE*          MOCLDY    61  59  94 CALM      30.05S
ABINGDON*      PTCLDY    65  58  76 N5        30.01S
$$

MDZ021>025-VAZ099-100-290400-
SOUTHERN MARYLAND AND THE DELMARVA PENINSULA

CITY           SKY/WX    TMP DP  RH WIND       PRES   REMARKS
PATUXENT RIVER PTCLDY    74  58  57 NW16G23   29.80R
BAY BRIDGE APT   N/A     72  61  68 NW12G17   29.80R
LEONARDTOWN    CLEAR     72  55  56 NW3       29.82S
DOVER          PTCLDY    70  61  73 NW9       29.75R
GEORGETOWN     CLEAR     74  59  59 VRB7      29.75F
EASTON         MOCLDY    74  62  66 N15G23    29.82R
CAMBRIDGE      PTCLDY    77  59  53 NW14G20   29.78S
SALISBURY      NOT AVBL
OCEAN CITY     CLEAR     73  59  61 W5        29.74F
WALLOPS ISLAND CLEAR     77  60  55 NW13G18   29.76F
ACCOMACK*        N/A     75  55  50 NW12G20   29.78S
$$

NCZ012>017-030>032-290400-
EASTERN NORTH CAROLINA

CITY           SKY/WX    TMP DP  RH WIND       PRES   REMARKS
ELIZABETH CITY CLEAR     72  62  71 W7        29.80S
AHOSKIE*       CLEAR     70  63  78 CALM      29.83S
EDENTON*       CLEAR     73  65  76 NW3       29.81S
CURRITUCK*     CLEAR     74  59  58 W7        29.80S
KILL DEVIL HLS CLEAR     80  63  56 NW5       29.78R
MANTEO         NOT AVBL
CAPE HATTERAS  CLEAR     80  75  84 NW8       29.80R
GOLDSBORO      PTCLDY    79  67  67 N3        29.83R
WASHINGTON     CLEAR     73  65  77 CALM      29.83S
GREENVILLE     CLEAR     73  68  83 CALM      29.86S
NEW BERN       CLEAR     76  72  87 CALM      29.83S
WILMINGTON     MOCLDY    74  70  87 E6        29.82F
$$

VAZ048-290400-
ELSEWHERE

CITY           SKY/WX    TMP DP  RH WIND       PRES   REMARKS
HARRISBURG PA  MOCLDY    67  60  78 NW9       29.81R
BALTIMORE      MOCLDY    70  60  70 NW10      29.81R
ANNAPOLIS      CLEAR     73  61  65 NW13G21   29.80R
ANDREWS AFB    CLEAR     71  60  67 NW10      29.82R
WILMINGTON DE  PTCLDY    68  63  84 W8        29.78R
PHILADELPHIA   MOCLDY    72  59  63 NW10      29.76R
WILDWOOD NJ*   PTCLDY    73  59  60 NW12G18   29.75S
ATLANTIC CITY  PTCLDY    69  60  73 NW8       29.73S
HENDERSON NC   CLEAR     69  58  68 W3        29.89S
GREENSBORO     CLEAR     71  57  61 NW5       29.91R
ROCKY MOUNT    CLEAR     75  61  61 NW3       29.85R
FAYETTEVILLE   MOCLDY    80  63  55 N6        29.86R
CHARLOTTE      MOCLDY    74  57  55 N7        29.92R
$$

VAZ100-290400-
MARINE

STATION/POSITION TIME  TEMP    WIND        PRES    WAVE   SWELL
                       AIR SEA DIR/SP/G            HT/PER HT/PER
                 (UTC) (F)     (DEG/KT/KT) (MB)    (FT/S) (FT/S)
44066 TX TWR #4  0300   76 75  260/ 14/ 17 1004.4F   5/ 8   3/ 8
CAPE MAY NJ      0300   74 79  320/  6/ 12 1006.5R
LEWES DE         0300   74 73  290/ 10/ 12 1006.9F
15NM E FENWICK I 0300   76 74              1006.7F   3/ 7
OCEAN-CITY-INLET 0300   75 69  320/  8/ 10 1006.6F
WACHAPREAGUE VA  0300   76 81  290/  1/  4 1008.0F
THOMAS POINT MD  0300   72 79  320/ 13/ 15 1009.6R
GOOSES REEF MD   0300   75     320/ 17/ 21 1009.4S
COVE POINT MD    0300   74     330/ 14/ 19 1008.6S
SOLOMONS ISLAND  0300      80                N/A
BISHOPS HEAD MD  0300   76 77  310/ 19/ 24 1007.9S
PINEY POINT MD   0300          330/ 22/ 25   N/A
POTOMAC MD       0300   77     320/ 23/ 27 1007.7S
CAMBRIDGE MD     0300   75 80  300/ 14/ 23 1008.2S
LEWISETTA VA     0300   75 80  320/ 13/ 16 1008.8S
RAPPAHANNOCK LGT 0300          300/ 25/ 29 1008.7F
STINGRAY PT      0300   79     310/ 16/ 17 1009.3S
YORK RVR RNG VA  0300   78     320/ 11/ 13 1008.3F
YORKTOWN VA      0300   78 80  290/ 10/ 12 1008.7F
JAMESTOWN VA     0300   78     320/ 14/ 17   N/A
DOMINION TERM VA 0300   78     300/ 13/ 16 1008.8F
KIPTOPEKE VA     0300      82  320/ 21/ 25   N/A
CHES BAY BRIDGE  0300   80 78  270/ 15/ 17 1007.9F
CAPE HENRY VA    0300   79     270/ 10/ 16 1007.2F
WILLOUBY STN VA  0300          300/ 13/ 15 1008.0F
S CRANEY ISL VA  0300          270/  8/ 13 1008.7F
CAPE HENRY BUOY  0300      78                N/A     3/ 7
1ST LANDING BUOY 0300   80     290/ 14/ 16 1008.1F
CAPE CHARLES BUO 0300      76                N/A     3/ 9
OFFSHORE WE BUOY 0300      78                N/A     3/ 7
64NM E OF VA BCH 0300   80 78  280/ 14/ 17 1007.4F   4/ 7   2/ 8
DUCK PIER NC     0300   80 60  290/ 12/ 15 1007.8S
44056 DUCK FRF   0300                        N/A     1/ 8
OREGON INLET NC  0300   81 84  310/ 11/ 15 1008.5R
HATTERAS NC      0300   80 82  300/ 11/ 13 1009.6R
DIAMOND SHLS NC  0300          VRB 14/ 16  1009.0R   3/ 8   2/ 8
CAPE LOOKOUT NC  0200   79     250/ 11/ 14 1009.2R
$$


USA.gov is the U.S. government's official web portal to all federal, state and local government web resources and services.